COSMOS 88

Satellite information

Favourite Embed

Satellite Type and Status

PAYLOADIN ORBIT

Key statistics

Satellite COSMOS 88 at a glance.

Uptime

21961

Days in orbit

Revolutions

≈ 12.4

Per day

Orbit

LEO

Low Earth Orbit

Inclination

56.1

Latest

Satellite identification and parameters

Extended collection of information and parameters for COSMOS 88.

Object identification

Identified? True

Debris? False

Object name: COSMOS 88

International designator: 1965-073C

Object number (NORAD): 1586

Object ID (CCSDS): 1586

Country: COMMONWEALTH OF INDEPENDENT STATES (CIS)

Current information (Y/N): Y

RCS size: MEDIUM

Orbital parameters

Period: 115.817 minutes

Inclination: 56.0603 deg

SMA: 7870.606 km

Apoapsis: 1639.109 km

Periapsis: 1345.832 km

RAAN: 267.7833 deg

Eccentricy: 0.01863114

Argument of periapsis: 225.3769 deg

Mean anomaly: 252.046 deg

Mean motion: 12.43341819 rev/day

Mean motion (dot): -0.00000098 rev/day2

B* drag term: -0.000032232399 1/REarth

Two-line elements (TLE)

Creation date: Nov. 2, 2025, 5:34 p.m.

Reference frame: TEME

Reference center: EARTH

Epoch: Nov. 2, 2025, 6:18 a.m. UTC

TLE line 0: 0 COSMOS 88

TLE line 1: 1 01586U 65073C 25306.26254259 -.00000098 00000-0 -32232-4 0 9997

TLE line 2: 2 01586 56.0603 267.7833 0186311 225.3769 252.0460 12.43341819730276

Live tracking on map

Real-time ground track for satellite COSMOS 88.

In-orbit conjunctions

A list of the most updated potential collisions computed for object COSMOS 88.

Target Orbit TCA Probability of collision Miss distance Type
DELTA 1 DEB MEO 2025-03-26 12:59:44 0.0002616949 643.0 (m) DEBRIS

Associated space launch

The Strela-1 satellites were prototype store-dump communications satellites for tactical communication.

COSMOS 88 was lifted into orbit during the mission ‘Kosmos 65S3 | Strela-1 25 to 29’, on board a Kosmos 65S3 space rocket.

The launch took place on Sept. 18, 1965, 7:59 a.m. from 41/15.

For more information about the launch, click the button.

Launch to space Kosmos 65S3 | Strela-1 25 to 29
Kosmos 65S3 | Strela-1 25 to 29

Agency: N/A

Status: Launch Successful

Launch date: Sept. 18, 1965, 7:59 a.m. UTC

Rocket: Kosmos 65S3

Launch pad: 41/15

Location: Baikonur Cosmodrome, Republic of Kazakhstan

...

Latest news about this satellite

There are no fresh news available about this satellite. Check back as we update our databases every day.


Newsletter sign-up

Weekly statistics, charts and insights to help you stay on top of the space industry.